Weather History for Hartford, CT

Change the Weather History Date:

Saturday, September 7, 2013

  Actual Average Record
Temperature  
Mean Temperature 64 °F -  
Max Temperature 79 °F 78 °F 92 °F (1945)
Min Temperature 51 °F 55 °F 34 °F (1984)
Growing Degree Days 14 (Base 50)    
Moisture  
Dew Point 50 °F    
Average Humidity 63    
Maximum Humidity 92    
Minimum Humidity 31    
Precipitation  
Precipitation 0.00 in - - ()
Sea Level Pressure  
Sea Level Pressure 30.01 in    
Wind  
Wind Speed 3 mph (South)    
Max Wind Speed 8 mph    
Max Gust Speed -    
Visibility 10 miles    
Events Rain    
Averages and records for this station are not official NWS values.
T = Trace of Precipitation, MM = Missing Value Source: NWS Daily Summary

Daily Weather History Graph

Daily Weather History Graph

Search for Another Location

Airport:

Trip Planner

Search our weather history database for the weather conditions in past years. The results will help you decide how hot, cold, wet, or windy it might be!

Date:

Astronomy

Sep. 07, 2013 Rise Set
Actual Time 6:22 AM EDT 7:13 PM EDT
Civil Twilight 5:54 AM EDT 7:41 PM EDT
Nautical Twilight 5:21 AM EDT 8:15 PM EDT
Astronomical Twilight 4:46 AM EDT 8:49 PM EDT
Moon 8:36 AM EDT (9/7) 8:07 PM EDT (9/7)
Length of Visible Light 13h 47m
Length of Day
12h 50m
Waxing Crescent, 5% of the Moon is Illuminated
Sep 7
Waxing Crescent
Sep 12
First Quarter
Sep 19
Full
Sep 26
Last Quarter
Oct 4
New

Hourly Weather History & Observations

Time (EDT) Temp. Dew Point Humidity Pressure Visibility Wind Dir Wind Speed Gust Speed Precip Events Conditions
12:53 AM 53.1 °F 50.0 °F 89% 30.12 in 10.0 mi Calm Calm - N/A   Clear
1:53 AM 51.1 °F 48.9 °F 92% 30.12 in 10.0 mi South 4.6 mph - N/A   Clear
2:53 AM 51.1 °F 48.9 °F 92% 30.11 in 10.0 mi South 3.5 mph - N/A   Clear
3:53 AM 51.1 °F 48.0 °F 89% 30.10 in 10.0 mi Calm Calm - N/A   Clear
4:53 AM 51.1 °F 48.0 °F 89% 30.10 in 10.0 mi Calm Calm - N/A   Clear
5:53 AM 52.0 °F 46.9 °F 83% 30.09 in 10.0 mi Calm Calm - N/A   Clear
6:53 AM 53.1 °F 48.0 °F 83% 30.09 in 10.0 mi Calm Calm - N/A   Clear
7:53 AM 55.9 °F 48.0 °F 75% 30.09 in 10.0 mi South 4.6 mph - N/A   Clear
8:53 AM 60.1 °F 48.9 °F 67% 30.07 in 10.0 mi South 4.6 mph - N/A   Clear
9:53 AM 66.0 °F 48.0 °F 52% 30.06 in 10.0 mi Variable 4.6 mph - N/A   Clear
10:53 AM 70.0 °F 48.9 °F 47% 30.06 in 10.0 mi Variable 3.5 mph - N/A   Clear
11:53 AM 73.9 °F 50.0 °F 43% 30.03 in 10.0 mi Calm Calm - N/A   Clear
12:53 PM 75.0 °F 46.0 °F 36% 30.00 in 10.0 mi Variable 4.6 mph - N/A   Clear
1:53 PM 77.0 °F 44.1 °F 31% 29.97 in 10.0 mi SW 5.8 mph - N/A   Clear
2:53 PM 78.1 °F 46.9 °F 33% 29.95 in 10.0 mi Variable 4.6 mph - N/A   Clear
3:53 PM 78.1 °F 46.9 °F 33% 29.93 in 10.0 mi Variable 5.8 mph - N/A   Clear
4:53 PM 78.1 °F 48.0 °F 35% 29.92 in 10.0 mi South 8.1 mph - N/A   Clear
5:53 PM 75.0 °F 52.0 °F 44% 29.91 in 10.0 mi SSW 8.1 mph - N/A   Clear
6:53 PM 72.0 °F 53.1 °F 51% 29.91 in 10.0 mi SSE 3.5 mph - N/A   Clear
7:53 PM 69.1 °F 52.0 °F 54% 29.91 in 10.0 mi South 5.8 mph - N/A   Partly Cloudy
8:53 PM 68.0 °F 55.0 °F 63% 29.91 in 10.0 mi South 4.6 mph - 0.00 in Rain Light Rain
9:53 PM 66.9 °F 57.0 °F 70% 29.91 in 10.0 mi South 4.6 mph - 0.00 in   Overcast
10:53 PM 66.9 °F 57.9 °F 73% 29.90 in 10.0 mi South 5.8 mph - 0.00 in Rain Light Rain
11:53 PM 64.9 °F 60.1 °F 84% 29.88 in 10.0 mi South 3.5 mph - 0.00 in   Overcast